Temp_Advection
nan nan nan nan nan nan nan nan nan nan nan nan nan nan nan nan nan nan nan nan nan nan
nan -0 -0 -0 0 -0 -0 -0 0 0 0 0 0 0 0 0 0 0 0 0 0 nan
nan -0 0 0 0 0 -0 -0 0 0 0 0 0 0 0 0 0 0 0 0 0 nan
nan 0 0 -0 -0 -0 -0 0 0 -0 -0 -0 0 -0 0 0 0 0 0 0 0 nan
nan 0 0 -0 -0 0 -0 -0 -0 -0 -0 0 0 0 0 0 0 0 0 0 0 nan
nan -0 -0 0 -0 0 0 0 0 0 1 1 1 1 0 0 1 0 0 0 0 nan
nan -0 0 -0 0 0 0 0 0 1 1 1 1 0 0 0 0 0 1 0 0 nan
nan 0 0 0 0 -0 -0 0 0 -0 1 1 -0 0 0 0 0 1 0 0 0 nan
nan 0 0 0 -0 -0 0 0 0 0 0 0 -0 0 0 0 0 0 0 0 0 nan
nan -0 0 0 0 0 0 0 0 0 0 0 0 0 0 0 0 0 0 0 0 nan
nan 0 0 0 0 0 0 0 0 0 0 0 0 0 0 0 0 0 0 1 1 nan
nan 0 0 0 0 0 0 0 0 0 0 0 0 0 0 0 0 1 1 1 0 nan
nan -0 -0 0 0 0 0 0 0 0 0 0 0 0 0 0 0 0 0 1 0 nan
nan nan nan nan nan nan nan nan nan nan nan nan nan nan nan nan nan nan nan nan nan nan
Wind_Speed
16 20 20 17 21 22 19 17 18 20 21 21 23 23 22 24 24 25 23 21 18 20
19 17 16 22 20 24 26 25 17 17 18 21 20 20 21 21 22 22 22 21 19 19
18 18 16 18 26 26 25 28 23 18 16 17 18 18 19 20 21 22 22 22 21 22
18 20 18 19 25 23 24 26 22 20 17 17 17 16 15 17 19 20 20 19 20 19
8 14 18 18 23 22 20 17 19 20 22 21 23 22 21 20 20 20 20 18 18 17
9 12 13 16 18 25 23 17 16 17 19 23 24 22 21 21 20 18 17 17 18 18
10 10 10 11 13 16 26 26 22 21 24 24 23 22 21 21 23 23 23 22 26 25
8 9 8 9 10 12 16 22 25 23 22 25 28 27 25 23 22 24 28 25 24 22
7 8 8 7 8 10 11 11 15 15 16 17 18 19 16 15 14 16 19 22 21 20
7 8 8 8 7 8 10 10 11 12 13 14 14 14 15 19 18 19 18 19 18 17
7 7 7 7 7 7 8 8 8 9 10 11 12 13 16 16 17 18 18 17 16 13
6 5 6 5 7 7 7 8 9 11 11 12 12 12 13 14 14 15 14 13 12 13
4 3 5 5 8 9 8 9 9 8 7 7 8 8 7 8 8 9 10 11 11 9
3 3 5 7 7 7 8 8 8 7 8 7 5 5 7 7 8 8 9 10 10 10
Wind_Direction
187 188 187 192 191 196 198 207 213 207 206 210 213 213 215 215 216 216 220 222 221 224
203 189 189 206 205 203 201 212 218 221 208 212 217 219 220 221 220 218 220 224 225 224
213 207 216 192 201 206 206 203 218 225 226 222 220 220 219 218 218 219 218 217 218 220
229 230 226 203 195 204 208 202 208 217 229 234 235 231 225 225 221 223 223 222 223 224
193 207 218 210 204 203 212 219 210 214 218 221 221 219 215 221 228 230 227 221 223 229
183 184 192 205 211 204 205 205 209 211 222 222 219 214 212 214 216 220 226 228 236 232
185 188 181 188 206 208 207 211 216 229 223 213 213 216 219 224 230 227 236 243 248 245
165 166 168 173 188 196 194 210 221 243 238 236 234 235 237 242 241 243 240 238 239 245
150 161 162 171 189 184 189 203 206 217 217 218 223 221 223 236 232 242 234 241 241 242
117 124 136 155 161 193 204 210 212 216 219 218 224 228 224 223 232 234 245 240 233 233
117 128 138 148 150 164 161 175 180 190 202 213 219 213 214 231 232 234 229 224 223 222
113 132 136 148 141 158 189 181 183 198 209 217 219 223 228 224 216 211 211 213 218 218
128 116 134 144 135 155 170 176 162 171 168 184 187 185 193 193 193 193 201 206 211 222
148 142 131 153 151 132 174 166 157 168 156 159 156 164 164 169 175 181 189 199 211 217
Height
1441 1446 1448 1450 1453 1462 1468 1473 1478 1482 1486 1490 1495 1499 1501 1506 1510 1514 1517 1521 1524 1527
1440 1441 1443 1447 1455 1462 1468 1472 1476 1480 1482 1487 1493 1496 1500 1504 1508 1511 1515 1519 1521 1524
1437 1440 1442 1448 1454 1460 1465 1469 1473 1476 1479 1484 1489 1494 1498 1502 1506 1509 1513 1516 1518 1520
1435 1439 1444 1447 1453 1458 1462 1465 1468 1473 1478 1483 1488 1493 1496 1500 1504 1508 1512 1513 1516 1518
1435 1438 1442 1445 1449 1454 1462 1466 1468 1472 1477 1482 1488 1489 1493 1498 1503 1506 1509 1510 1513 1516
1438 1440 1441 1445 1447 1453 1458 1463 1467 1471 1477 1480 1484 1487 1489 1493 1498 1503 1507 1507 1509 1512
1437 1438 1441 1444 1447 1450 1454 1461 1466 1468 1473 1477 1481 1485 1487 1490 1494 1495 1498 1502 1505 1506
1438 1440 1440 1443 1447 1449 1452 1456 1461 1465 1467 1471 1475 1477 1482 1485 1486 1488 1492 1495 1498 1500
1436 1439 1440 1444 1445 1449 1451 1454 1458 1462 1465 1468 1471 1474 1477 1481 1484 1484 1486 1490 1493 1495
1440 1438 1442 1444 1447 1450 1452 1454 1456 1460 1463 1467 1470 1472 1474 1477 1481 1481 1482 1486 1488 1491
1443 1443 1444 1446 1447 1449 1452 1455 1455 1458 1462 1465 1468 1469 1474 1475 1476 1478 1479 1482 1485 1488
1444 1445 1444 1446 1446 1450 1455 1455 1455 1458 1460 1464 1465 1468 1470 1472 1472 1475 1478 1479 1483 1487
1446 1444 1444 1447 1447 1454 1457 1456 1454 1458 1459 1464 1465 1466 1469 1470 1472 1473 1478 1480 1484 1484
1443 1443 1442 1450 1453 1446 1459 1456 1453 1457 1458 1465 1466 1466 1468 1471 1473 1473 1477 1480 1481 1481